User: anonymous   Login
Location: Kailua
(21.4020°N, 157.7390°W)
Time: 09:47:21
(UTC-10:00)
Language:

Cosmos 2297 Rocket - Orbit

View from above orbital plane
View from above orbital plane
View from above satellite
View from above satellite

Ground track
Ground track

The orbit data is extracted from the following two-line orbital elements,

1 23405U 94077B   18173.93621002 -.00000223 +00000-0 -90009-4 0  9995
2 23405 070.9804 155.8988 0001401 179.7551 180.3572 14.15199665217710
Epoch (UTC): 22 June 2018 22:28:08
Eccentricity: 0.0001401
inclination: 70.9804°
perigee height: 840 km
apogee height: 842 km
right ascension of ascending node: 155.8988°
argument of perigee: 179.7551°
revolutions per day: 14.15199665
mean anomaly at epoch: 180.3572°
orbit number at epoch: 21771

The dashed part of the orbit path shows where the satellite is in the earth's shadow,  

DLR